User: anonymous   Login
Location: Unspecified
(0.0000°N, 0.0000°E)
Time: 21:08:17
(UTC+00:00)
Language:

STARLINK-36184 - Orbit

View from above orbital plane
View from above orbital plane
View from above satellite
View from above satellite

Ground track
Ground track

The orbit is defined by the following mean orbital elements,

1 67021U          26145.58590618 +.00000000 +00000-0 -51153-3 0 00008
2 67021  70.0005 260.6684 0003254 270.6605  89.4181 14.98325369    03
Epoch (UTC): 25 May 2026 14:03:42
Eccentricity: 0.0003254
inclination: 70.0005°
perigee height: 570 km
apogee height: 574 km
right ascension of ascending node: 260.6684°
argument of perigee: 270.6605°
revolutions per day: 14.98325369
mean anomaly at epoch: 89.4181°

The dashed part of the orbit path shows where the satellite is in the earth's shadow,  

DLR